KC5EZZ-4 Weather Reports


Display with metric or nautical units.
time (UTC)temp
F
wind
direction
speed
MPH
gust
MPH
rain 1hr
in
rain 24hr
in
rain mn
in
humidity
%
barometer
mb
20210917120017 64 104 0.0 1.0 0.00 0.00 0.00 77 1013.4
20210917114529 65 104 0.0 1.0 0.00 0.00 0.00 77 1013.1
20210917113126 65 104 0.0 0.0 0.00 0.00 0.00 76 1012.8
20210917112755 63 359 0.0 0.0 0.00 0.00 0.00
20210917111733 63 359 0.0 0.0 0.00 0.00 0.00
20210917111618 65 104 0.0 0.0 0.00 0.00 0.00 76 1012.8
20210917110115 66 104 0.0 0.0 0.00 0.00 0.00 74 1012.5
20210917104649 66 105 0.0 0.0 0.00 0.00 0.00 74 1012.5
20210917103054 66 105 0.0 1.0 0.00 0.00 0.00 74 1012.6
20210917101557 67 105 1.0 2.0 0.00 0.00 0.00 74 1012.4
20210917100058 67 105 1.0 2.0 0.00 0.00 0.00 74 1012.4
20210917094542 67 90 2.0 3.0 0.00 0.00 0.00 73 1012.4
20210917093029 67 156 1.0 3.0 0.00 0.00 0.00 73 1012.4
20210917091549 68 156 1.0 2.0 0.00 0.00 0.00 73 1012.3
20210917090020 68 156 0.0 2.0 0.00 0.00 0.00 72 1012.3
20210917084521 69 360 1.0 2.0 0.00 0.00 0.00 71 1012.2
20210917083012 70 156 1.0 2.0 0.00 0.00 0.00 71 1012.2
20210917081507 71 156 0.0 1.0 0.00 0.00 0.00 70 1012.3
20210917080006 71 157 3.0 5.0 0.00 0.00 0.00 70 1012.3
20210917074507 71 149 1.0 3.0 0.00 0.00 0.00 69 1012.3
20210917073003 72 149 2.0 3.0 0.00 0.00 0.00 68 1012.4
20210917071502 73 149 1.0 3.0 0.00 0.00 0.00 67 1012.4
20210917070118 73 132 2.0 4.0 0.00 0.00 0.00 67 1012.4
20210917064615 72 151 2.0 5.0 0.00 0.00 0.00 67 1012.4
20210917063056 72 148 2.0 5.0 0.00 0.00 0.00 66 1012.5
20210917061615 71 115 2.0 4.0 0.00 0.00 0.00 66 1012.6
20210917060106 72 91 1.0 3.0 0.00 0.00 0.00 65 1012.6
20210917054557 72 89 1.0 2.0 0.00 0.00 0.00 65 1012.7
20210917053052 72 91 1.0 2.0 0.00 0.00 0.00 63 1012.6
20210917051552 74 128 2.0 4.0 0.00 0.00 0.00 63 1012.4
20210917050053 74 128 3.0 5.0 0.00 0.00 0.00 61 1012.3
20210917044521 74 171 3.0 5.0 0.00 0.00 0.00 61 1012.2
20210917043009 75 136 3.0 6.0 0.00 0.00 0.00 60 1012.0
20210917041505 75 161 3.0 5.0 0.00 0.00 0.00 58 1012.0
20210917040130 75 153 2.0 5.0 0.00 0.00 0.00 58 1011.9
20210917034638 76 144 2.0 4.0 0.00 0.00 0.00 58 1011.8
20210917033144 77 139 3.0 7.0 0.00 0.00 0.00 56 1011.7
20210917031637 78 134 4.0 8.0 0.00 0.00 0.00 53 1011.6
20210917030115 78 128 4.0 8.0 0.00 0.00 0.00 53 1011.5
20210917024638 78 125 4.0 7.0 0.00 0.00 0.00 53 1011.3
20210917023126 79 142 3.0 7.0 0.00 0.00 0.00 51 1011.1
20210917021611 80 130 2.0 5.0 0.00 0.00 0.00 51 1010.9
20210917020104 79 122 2.0 6.0 0.00 0.00 0.00 51 1010.8
20210917014556 80 163 3.0 6.0 0.00 0.00 0.00 50 1010.7
20210917013049 82 137 3.0 5.0 0.00 0.00 0.00 48 1010.5
20210917011536 83 111 2.0 5.0 0.00 0.00 0.00 46 1010.4
20210917010020 84 120 2.0 4.0 0.00 0.00 0.00 46 1010.2
20210917004529 85 109 2.0 6.0 0.00 0.00 0.00 43 1010.1
20210917003011 87 117 3.0 6.0 0.00 0.00 0.00 41 1010.0
20210917001620 88 136 2.0 5.0 0.00 0.00 0.00 41 1009.8
20210917000213 89 161 2.0 6.0 0.00 0.00 0.00 39 1009.8
20210916234739 90 155 0.0 7.0 0.00 0.00 0.00 37 1009.7
20210916233156 90 123 3.0 8.0 0.00 0.00 0.00 37 1009.7
20210916231624 90 110 3.0 9.0 0.00 0.00 0.00 37 1009.5
20210916230140 90 117 3.0 8.0 0.00 0.00 0.00 37 1009.6
20210916224700 90 125 0.0 7.0 0.00 0.00 0.00 37 1009.7
20210916223324 90 162 2.0 8.0 0.00 0.00 0.00 37 1009.7
20210916221602 90 134 3.0 6.0 0.00 0.00 0.00 36 1009.8
20210916220053 90 165 2.0 7.0 0.00 0.00 0.00 38 1009.7
20210916214546 90 101 3.0 7.0 0.00 0.00 0.00 38 1009.8
20210916213109 90 152 5.0 10.0 0.00 0.00 0.00 37 1009.9
20210916211641 90 252 2.0 5.0 0.00 0.00 0.00 39 1010.1
20210916210107 89 168 3.0 11.0 0.00 0.00 0.00 40 1010.4
20210916204601 89 94 2.0 9.0 0.00 0.00 0.00 41 1010.6
20210916203107 90 120 6.0 11.0 0.00 0.00 0.00 40 1010.7
20210916201543 89 102 4.0 8.0 0.00 0.00 0.00 40 1011.0
20210916200012 89 164 3.0 10.0 0.00 0.00 0.00 40 1011.2
20210916194507 88 74 7.0 15.0 0.00 0.00 0.00 41 1011.4
20210916193007 88 184 3.0 7.0 0.00 0.00 0.00 42 1011.5
20210916191504 88 151 0.0 7.0 0.00 0.00 0.00 42 1011.7
20210916190003 88 123 5.0 11.0 0.00 0.00 0.00 42 1012.1
20210916184510 86 92 3.0 8.0 0.00 0.00 0.00 44 1012.2
20210916183002 86 24 4.0 10.0 0.00 0.00 0.00 44 1012.4
20210916181605 85 122 2.0 10.0 0.00 0.00 0.00 46 1012.7
20210916180140 86 134 3.0 7.0 0.00 0.00 0.00 47 1012.8
20210916174608 85 189 3.0 8.0 0.00 0.00 0.00 50 1012.9
20210916173121 84 179 0.0 5.0 0.00 0.00 0.00 52 1013.2
20210916171610 83 103 3.0 11.0 0.00 0.00 0.00 52 1013.6
20210916170142 83 191 4.0 8.0 0.00 0.00 0.00 53 1013.9
20210916164627 83 124 4.0 8.0 0.00 0.00 0.00 53 1014.1
20210916163127 82 170 2.0 9.0 0.00 0.00 0.00 55 1014.3
20210916161547 83 169 4.0 7.0 0.00 0.00 0.00 55 1014.5
20210916160121 82 240 5.0 8.0 0.00 0.00 0.00 55 1014.5
20210916154534 82 215 3.0 6.0 0.00 0.00 0.00 56 1014.6
20210916153034 81 225 4.0 8.0 0.00 0.00 0.00 58 1014.6
20210916151550 81 180 2.0 5.0 0.00 0.00 0.00 59 1014.7
20210916150059 80 255 2.0 6.0 0.00 0.00 0.00 61 1014.7
20210916144541 80 207 1.0 8.0 0.00 0.00 0.00 61 1014.7
20210916143108 80 172 0.0 2.0 0.00 0.00 0.00 62 1014.6
20210916141525 77 231 0.0 2.0 0.00 0.00 0.00 66 1014.7
20210916140019 73 231 0.0 1.0 0.00 0.00 0.00 70 1014.6
20210916134555 71 233 0.0 2.0 0.00 0.00 0.00 72 1014.5
20210916133017 70 232 0.0 0.0 0.00 0.00 0.00 74 1014.5
20210916131541 67 232 0.0 0.0 0.00 0.00 0.00 77 1014.4
20210916130024 64 232 0.0 0.0 0.00 0.00 0.00 79 1014.2
20210916124506 62 231 0.0 0.0 0.00 0.00 0.00 80 1013.9
20210916123005 60 231 0.0 0.0 0.00 0.00 0.00 80 1013.8
20210916121604 61 232 0.0 0.0 0.00 0.00 0.00 80 1013.7